Year,Month,Day,Hour,Minute,Value (Times are PST for temperature in C)
2009,07,26,00,00,18.60
2009,07,26,00,01,18.50
2009,07,26,00,02,18.50
2009,07,26,00,03,18.40
2009,07,26,00,04,18.30
2009,07,26,00,05,18.20
2009,07,26,00,06,18.00
2009,07,26,00,07,17.50
2009,07,26,00,08,16.90
2009,07,26,00,09,16.50
2009,07,26,00,10,16.30
2009,07,26,00,11,16.00
2009,07,26,00,12,15.80
2009,07,26,00,13,15.50
2009,07,26,00,14,15.40
2009,07,26,00,15,15.30
2009,07,26,00,16,15.20
2009,07,26,00,17,15.20
2009,07,26,00,18,15.20
2009,07,26,00,19,15.20
2009,07,26,00,20,15.30
2009,07,26,00,21,15.30
2009,07,26,00,22,15.30
2009,07,26,00,23,15.40
2009,07,26,00,24,15.40
2009,07,26,00,25,15.50
2009,07,26,00,26,15.60
2009,07,26,00,27,15.70
2009,07,26,00,28,15.90
2009,07,26,00,29,16.00
2009,07,26,00,30,16.10
2009,07,26,00,31,16.20
2009,07,26,00,32,16.20
2009,07,26,00,33,16.30
2009,07,26,00,34,16.40
2009,07,26,00,35,16.40
2009,07,26,00,36,16.50
2009,07,26,00,37,16.60
2009,07,26,00,38,16.70
2009,07,26,00,39,16.70
2009,07,26,00,40,16.80
2009,07,26,00,41,16.90
2009,07,26,00,42,17.00
2009,07,26,00,43,17.00
2009,07,26,00,44,17.10
2009,07,26,00,45,17.10
2009,07,26,00,46,17.20
2009,07,26,00,47,17.30
2009,07,26,00,48,17.30
2009,07,26,00,49,17.30
2009,07,26,00,50,17.30
2009,07,26,00,51,17.30
2009,07,26,00,52,17.40
2009,07,26,00,53,17.40
2009,07,26,00,54,17.40
2009,07,26,00,55,17.40
2009,07,26,00,56,17.50
2009,07,26,00,57,17.50
2009,07,26,00,58,17.60
2009,07,26,00,59,17.60
2009,07,26,01,00,17.60
2009,07,26,01,01,17.70
2009,07,26,01,02,17.70
2009,07,26,01,03,17.70
2009,07,26,01,04,17.80
2009,07,26,01,05,17.80
2009,07,26,01,06,17.80
2009,07,26,01,07,17.90
2009,07,26,01,08,17.90
2009,07,26,01,09,17.90
2009,07,26,01,10,17.90
2009,07,26,01,11,17.80
2009,07,26,01,12,17.80
2009,07,26,01,13,17.70
2009,07,26,01,14,17.70
2009,07,26,01,15,17.60
2009,07,26,01,16,17.60
2009,07,26,01,17,17.50
2009,07,26,01,18,17.50
2009,07,26,01,19,17.40
2009,07,26,01,20,17.40
2009,07,26,01,21,17.40
2009,07,26,01,22,17.30
2009,07,26,01,23,17.30
2009,07,26,01,24,17.30
2009,07,26,01,25,17.30
2009,07,26,01,26,17.40
2009,07,26,01,27,17.40
2009,07,26,01,28,17.40
2009,07,26,01,29,17.40
2009,07,26,01,30,17.40
2009,07,26,01,31,17.40
2009,07,26,01,32,17.40
2009,07,26,01,33,17.50
2009,07,26,01,34,17.50
2009,07,26,01,35,17.50
2009,07,26,01,36,17.60
2009,07,26,01,37,17.60
2009,07,26,01,38,17.60
2009,07,26,01,39,17.60
2009,07,26,01,40,17.60
2009,07,26,01,41,17.70
2009,07,26,01,42,17.70
2009,07,26,01,43,17.70
2009,07,26,01,44,17.70
2009,07,26,01,45,17.70
2009,07,26,01,46,17.70
2009,07,26,01,47,17.70
2009,07,26,01,48,17.80
2009,07,26,01,49,17.80
2009,07,26,01,50,17.80
2009,07,26,01,51,17.70
2009,07,26,01,52,17.70
2009,07,26,01,53,17.80
2009,07,26,01,54,17.80
2009,07,26,01,55,17.80
2009,07,26,01,56,17.80
2009,07,26,01,57,17.80
2009,07,26,01,58,17.80
2009,07,26,01,59,17.90
2009,07,26,02,00,17.90
2009,07,26,02,01,17.90
2009,07,26,02,02,18.00
2009,07,26,02,03,18.10
2009,07,26,02,04,18.10
2009,07,26,02,05,18.20
2009,07,26,02,06,18.20
2009,07,26,02,07,18.20
2009,07,26,02,08,18.20
2009,07,26,02,09,18.20
2009,07,26,02,10,18.20
2009,07,26,02,11,18.30
2009,07,26,02,12,18.30
2009,07,26,02,13,18.30
2009,07,26,02,14,18.30
2009,07,26,02,15,18.30
2009,07,26,02,16,18.30
2009,07,26,02,17,18.30
2009,07,26,02,18,18.40
2009,07,26,02,19,18.40
2009,07,26,02,20,18.40
2009,07,26,02,21,18.50
2009,07,26,02,22,18.50
2009,07,26,02,23,18.50
2009,07,26,02,24,18.60
2009,07,26,02,25,18.60
2009,07,26,02,26,18.60
2009,07,26,02,27,18.60
2009,07,26,02,28,18.60
2009,07,26,02,29,18.70
2009,07,26,02,30,18.70
2009,07,26,02,31,18.60
2009,07,26,02,32,18.40
2009,07,26,02,33,18.30
2009,07,26,02,34,18.20
2009,07,26,02,35,18.20
2009,07,26,02,36,18.10
2009,07,26,02,37,18.00
2009,07,26,02,38,17.90
2009,07,26,02,39,17.80
2009,07,26,02,40,17.70
2009,07,26,02,41,17.60
2009,07,26,02,42,17.50
2009,07,26,02,43,17.50
2009,07,26,02,44,17.40
2009,07,26,02,45,17.30
2009,07,26,02,46,17.30
2009,07,26,02,47,17.20
2009,07,26,02,48,17.20
2009,07,26,02,49,17.10
2009,07,26,02,50,17.10
2009,07,26,02,51,17.10
2009,07,26,02,52,17.10
2009,07,26,02,53,17.00
2009,07,26,02,54,16.90
2009,07,26,02,55,16.90
2009,07,26,02,56,16.90
2009,07,26,02,57,16.80
2009,07,26,02,58,16.80
2009,07,26,02,59,16.80
2009,07,26,03,00,16.80
2009,07,26,03,01,16.80
2009,07,26,03,02,16.80
2009,07,26,03,03,16.80
2009,07,26,03,04,16.80
2009,07,26,03,05,16.80
2009,07,26,03,06,16.90
2009,07,26,03,07,17.00
2009,07,26,03,08,17.00
2009,07,26,03,09,17.10
2009,07,26,03,10,17.10
2009,07,26,03,11,17.10
2009,07,26,03,12,17.20
2009,07,26,03,13,17.30
2009,07,26,03,14,17.50
2009,07,26,03,15,17.60
2009,07,26,03,16,17.70
2009,07,26,03,17,17.80
2009,07,26,03,18,17.90
2009,07,26,03,19,17.90
2009,07,26,03,20,18.00
2009,07,26,03,21,18.10
2009,07,26,03,22,18.10
2009,07,26,03,23,18.20
2009,07,26,03,24,18.20
2009,07,26,03,25,18.20
2009,07,26,03,26,18.20
2009,07,26,03,27,18.20
2009,07,26,03,28,18.30
2009,07,26,03,29,18.40
2009,07,26,03,30,18.50
2009,07,26,03,31,18.50
2009,07,26,03,32,18.60
2009,07,26,03,33,18.60
2009,07,26,03,34,18.70
2009,07,26,03,35,18.80
2009,07,26,03,36,18.90
2009,07,26,03,37,18.90
2009,07,26,03,38,18.90
2009,07,26,03,39,19.10
2009,07,26,03,40,19.10
2009,07,26,03,41,19.10
2009,07,26,03,42,19.10
2009,07,26,03,43,19.20
2009,07,26,03,44,19.20
2009,07,26,03,45,19.30
2009,07,26,03,46,19.30
2009,07,26,03,47,19.30
2009,07,26,03,48,19.30
2009,07,26,03,49,19.30
2009,07,26,03,50,19.30
2009,07,26,03,51,19.30
2009,07,26,03,52,19.20
2009,07,26,03,53,19.10
2009,07,26,03,54,18.80
2009,07,26,03,55,18.40
2009,07,26,03,56,18.10
2009,07,26,03,57,17.90
2009,07,26,03,58,17.80
2009,07,26,03,59,17.70
2009,07,26,04,00,17.50
2009,07,26,04,01,17.40
2009,07,26,04,02,17.30
2009,07,26,04,03,17.10
2009,07,26,04,04,16.90
2009,07,26,04,05,16.80
2009,07,26,04,06,16.70
2009,07,26,04,07,16.40
2009,07,26,04,08,16.30
2009,07,26,04,09,16.10
2009,07,26,04,10,16.00
2009,07,26,04,11,15.90
2009,07,26,04,12,15.80
2009,07,26,04,13,15.70
2009,07,26,04,14,15.70
2009,07,26,04,15,15.60
2009,07,26,04,16,15.60
2009,07,26,04,17,15.60
2009,07,26,04,18,15.60
2009,07,26,04,19,15.60
2009,07,26,04,20,15.60
2009,07,26,04,21,15.60
2009,07,26,04,22,15.60
2009,07,26,04,23,15.60
2009,07,26,04,24,15.60
2009,07,26,04,25,15.70
2009,07,26,04,26,15.70
2009,07,26,04,27,15.80
2009,07,26,04,28,15.80
2009,07,26,04,29,15.80
2009,07,26,04,30,15.80
2009,07,26,04,31,15.80
2009,07,26,04,32,15.90
2009,07,26,04,33,16.00
2009,07,26,04,34,16.10
2009,07,26,04,35,16.10
2009,07,26,04,36,16.10
2009,07,26,04,37,16.20
2009,07,26,04,38,16.20
2009,07,26,04,39,16.20
2009,07,26,04,40,16.30
2009,07,26,04,41,16.30
2009,07,26,04,42,16.30
2009,07,26,04,43,16.30
2009,07,26,04,44,16.30
2009,07,26,04,45,16.40
2009,07,26,04,46,16.40
2009,07,26,04,47,16.40
2009,07,26,04,48,16.40
2009,07,26,04,49,16.50
2009,07,26,04,50,16.60
2009,07,26,04,51,16.60
2009,07,26,04,52,16.60
2009,07,26,04,53,16.60
2009,07,26,04,54,16.60
2009,07,26,04,55,16.70
2009,07,26,04,56,16.70
2009,07,26,04,57,16.70
2009,07,26,04,58,16.70
2009,07,26,04,59,16.70
2009,07,26,05,00,16.70
2009,07,26,05,01,16.70
2009,07,26,05,02,16.70
2009,07,26,05,03,16.80
2009,07,26,05,04,16.80
2009,07,26,05,05,16.90
2009,07,26,05,06,16.90
2009,07,26,05,07,16.90
2009,07,26,05,08,17.00
2009,07,26,05,09,17.00
2009,07,26,05,10,17.00
2009,07,26,05,11,17.00
2009,07,26,05,12,17.00
2009,07,26,05,13,17.00
2009,07,26,05,14,17.00
2009,07,26,05,15,17.00
2009,07,26,05,16,17.00
2009,07,26,05,17,17.00
2009,07,26,05,18,17.00
2009,07,26,05,19,17.10
2009,07,26,05,20,17.10
2009,07,26,05,21,17.10
2009,07,26,05,22,17.10
2009,07,26,05,23,17.20
2009,07,26,05,24,17.20
2009,07,26,05,25,17.30
2009,07,26,05,26,17.30
2009,07,26,05,27,17.30
2009,07,26,05,28,17.30
2009,07,26,05,29,17.40
2009,07,26,05,30,17.40
2009,07,26,05,31,17.50
2009,07,26,05,32,17.50
2009,07,26,05,33,17.50
2009,07,26,05,34,17.40
2009,07,26,05,35,17.50
2009,07,26,05,36,17.50
2009,07,26,05,37,17.50
2009,07,26,05,38,17.50
2009,07,26,05,39,17.60
2009,07,26,05,40,17.60
2009,07,26,05,41,17.60
2009,07,26,05,42,17.60
2009,07,26,05,43,17.60
2009,07,26,05,44,17.70
2009,07,26,05,45,17.70
2009,07,26,05,46,17.70
2009,07,26,05,47,17.70
2009,07,26,05,48,17.70
2009,07,26,05,49,17.70
2009,07,26,05,50,17.70
2009,07,26,05,51,17.70
2009,07,26,05,52,17.70
2009,07,26,05,53,17.70
2009,07,26,05,54,17.80
2009,07,26,05,55,17.80
2009,07,26,05,56,17.80
2009,07,26,05,57,17.90
2009,07,26,05,58,17.90
2009,07,26,05,59,17.90
2009,07,26,06,00,17.90
2009,07,26,06,01,18.00
2009,07,26,06,02,18.10
2009,07,26,06,03,18.10
2009,07,26,06,04,18.10
2009,07,26,06,05,18.10
2009,07,26,06,06,18.20
2009,07,26,06,07,18.10
2009,07,26,06,08,18.00
2009,07,26,06,09,17.90
2009,07,26,06,10,17.80
2009,07,26,06,11,17.80
2009,07,26,06,12,17.70
2009,07,26,06,13,17.60
2009,07,26,06,14,17.60
2009,07,26,06,15,17.50
2009,07,26,06,16,17.60
2009,07,26,06,17,17.60
2009,07,26,06,18,17.60
2009,07,26,06,19,17.60
2009,07,26,06,20,17.60
2009,07,26,06,21,17.60
2009,07,26,06,22,17.60
2009,07,26,06,23,17.60
2009,07,26,06,24,17.70
2009,07,26,06,25,17.70
2009,07,26,06,26,17.80
2009,07,26,06,27,17.80
2009,07,26,06,28,17.90
2009,07,26,06,29,17.90
2009,07,26,06,30,17.90
2009,07,26,06,31,17.90
2009,07,26,06,32,18.00
2009,07,26,06,33,18.10
2009,07,26,06,34,18.10
2009,07,26,06,35,18.10
2009,07,26,06,36,18.20
2009,07,26,06,37,18.20
2009,07,26,06,38,18.20
2009,07,26,06,39,18.20
2009,07,26,06,40,18.20
2009,07,26,06,41,18.30
2009,07,26,06,42,18.30
2009,07,26,06,43,18.30
2009,07,26,06,44,18.40
2009,07,26,06,45,18.40
2009,07,26,06,46,18.40
2009,07,26,06,47,18.50
2009,07,26,06,48,18.50
2009,07,26,06,49,18.50
2009,07,26,06,50,18.50
2009,07,26,06,51,18.50
2009,07,26,06,52,18.50
2009,07,26,06,53,18.30
2009,07,26,06,54,17.80
2009,07,26,06,55,17.40
2009,07,26,06,56,17.10
2009,07,26,06,57,16.80
2009,07,26,06,58,16.70
2009,07,26,06,59,16.60
2009,07,26,07,00,16.60
2009,07,26,07,01,16.40
2009,07,26,07,02,16.40
2009,07,26,07,03,16.40
2009,07,26,07,04,16.40
2009,07,26,07,05,16.40
2009,07,26,07,06,16.40
2009,07,26,07,07,16.40
2009,07,26,07,08,16.40
2009,07,26,07,09,16.50
2009,07,26,07,10,16.60
2009,07,26,07,11,16.70
2009,07,26,07,12,16.80
2009,07,26,07,13,16.80
2009,07,26,07,14,16.90
2009,07,26,07,15,16.90
2009,07,26,07,16,16.80
2009,07,26,07,17,16.70
2009,07,26,07,18,16.60
2009,07,26,07,19,16.40
2009,07,26,07,20,16.30
2009,07,26,07,21,16.30
2009,07,26,07,22,16.30
2009,07,26,07,23,16.30
2009,07,26,07,24,16.30
2009,07,26,07,25,16.30
2009,07,26,07,26,16.30
2009,07,26,07,27,16.40
2009,07,26,07,28,16.40
2009,07,26,07,29,16.50
2009,07,26,07,30,16.60
2009,07,26,07,31,16.70
2009,07,26,07,32,16.70
2009,07,26,07,33,16.80
2009,07,26,07,34,16.90
2009,07,26,07,35,16.90
2009,07,26,07,36,17.00
2009,07,26,07,37,17.20
2009,07,26,07,38,17.30
2009,07,26,07,39,17.40
2009,07,26,07,40,17.50
2009,07,26,07,41,17.60
2009,07,26,07,42,17.70
2009,07,26,07,43,17.70
2009,07,26,07,44,17.80
2009,07,26,07,45,17.90
2009,07,26,07,46,17.90
2009,07,26,07,47,18.00
2009,07,26,07,48,18.10
2009,07,26,07,49,18.20
2009,07,26,07,50,18.20
2009,07,26,07,51,18.20
2009,07,26,07,52,18.30
2009,07,26,07,53,18.30
2009,07,26,07,54,18.40
2009,07,26,07,55,18.40
2009,07,26,07,56,18.50
2009,07,26,07,57,18.60
2009,07,26,07,58,18.60
2009,07,26,07,59,18.70
2009,07,26,08,00,18.90
2009,07,26,08,01,19.00
2009,07,26,08,02,19.10
2009,07,26,08,03,19.20
2009,07,26,08,04,19.30
2009,07,26,08,05,19.30
2009,07,26,08,06,19.20
2009,07,26,08,07,19.10
2009,07,26,08,08,19.10
2009,07,26,08,09,19.10
2009,07,26,08,10,19.10
2009,07,26,08,11,19.10
2009,07,26,08,12,19.10
2009,07,26,08,13,19.10
2009,07,26,08,14,19.10
2009,07,26,08,15,19.10
2009,07,26,08,16,19.10
2009,07,26,08,17,19.00
2009,07,26,08,18,18.90
2009,07,26,08,19,18.80
2009,07,26,08,20,18.70
2009,07,26,08,21,18.70
2009,07,26,08,22,18.70
2009,07,26,08,23,18.70
2009,07,26,08,24,18.80
2009,07,26,08,25,18.80
2009,07,26,08,26,18.90
2009,07,26,08,27,18.90
2009,07,26,08,28,18.90
2009,07,26,08,29,18.90
2009,07,26,08,30,18.90
2009,07,26,08,31,18.90
2009,07,26,08,32,18.90
2009,07,26,08,33,18.90
2009,07,26,08,34,18.90
2009,07,26,08,35,18.90
2009,07,26,08,36,18.90
2009,07,26,08,37,18.90
2009,07,26,08,38,18.90
2009,07,26,08,39,18.90
2009,07,26,08,40,18.90
2009,07,26,08,41,18.90
2009,07,26,08,42,18.90
2009,07,26,08,43,19.00
2009,07,26,08,44,19.10
2009,07,26,08,45,19.10
2009,07,26,08,46,19.10
2009,07,26,08,47,19.20
2009,07,26,08,48,19.30
2009,07,26,08,49,19.30
2009,07,26,08,50,19.30
2009,07,26,08,51,19.30
2009,07,26,08,52,19.30
2009,07,26,08,53,19.30
2009,07,26,08,54,19.40
2009,07,26,08,55,19.40
2009,07,26,08,56,19.50
2009,07,26,08,57,19.50
2009,07,26,08,58,19.50
2009,07,26,08,59,19.50
2009,07,26,09,00,19.50
2009,07,26,09,01,19.40
2009,07,26,09,02,19.40
2009,07,26,09,03,19.40
2009,07,26,09,04,19.40
2009,07,26,09,05,19.50
2009,07,26,09,06,19.60
2009,07,26,09,07,19.60
2009,07,26,09,08,19.60
2009,07,26,09,09,19.60
2009,07,26,09,10,19.60
2009,07,26,09,11,19.70
2009,07,26,09,12,19.70
2009,07,26,09,13,19.80
2009,07,26,09,14,19.80
2009,07,26,09,15,19.90
2009,07,26,09,16,19.90
2009,07,26,09,17,19.80
2009,07,26,09,18,19.80
2009,07,26,09,19,19.80
2009,07,26,09,20,19.80
2009,07,26,09,21,19.80
2009,07,26,09,22,19.70
2009,07,26,09,23,19.80
2009,07,26,09,24,19.80
2009,07,26,09,25,19.80
2009,07,26,09,26,19.80
2009,07,26,09,27,19.80
2009,07,26,09,28,19.90
2009,07,26,09,29,19.90
2009,07,26,09,30,19.90
2009,07,26,09,31,20.00
2009,07,26,09,32,20.10
2009,07,26,09,33,20.20
2009,07,26,09,34,20.20
2009,07,26,09,35,20.10
2009,07,26,09,36,20.00
2009,07,26,09,37,19.90
2009,07,26,09,38,19.90
2009,07,26,09,39,19.90
2009,07,26,09,40,20.00
2009,07,26,09,41,20.10
2009,07,26,09,42,20.20
2009,07,26,09,43,20.20
2009,07,26,09,44,20.20
2009,07,26,09,45,20.20
2009,07,26,09,46,20.30
2009,07,26,09,47,20.30
2009,07,26,09,48,20.20
2009,07,26,09,49,20.20
2009,07,26,09,50,20.20
2009,07,26,09,51,20.20
2009,07,26,09,52,20.10
2009,07,26,09,53,20.10
2009,07,26,09,54,20.10
2009,07,26,09,55,20.10
2009,07,26,09,56,20.10
2009,07,26,09,57,20.10
2009,07,26,09,58,20.20
2009,07,26,09,59,20.30
2009,07,26,10,00,20.40
2009,07,26,10,01,20.40
2009,07,26,10,02,20.50
2009,07,26,10,03,20.30
2009,07,26,10,04,20.30
2009,07,26,10,05,20.40
2009,07,26,10,06,20.40
2009,07,26,10,07,20.40
2009,07,26,10,08,20.50
2009,07,26,10,09,20.50
2009,07,26,10,10,20.50
2009,07,26,10,11,20.70
2009,07,26,10,12,20.80
2009,07,26,10,13,20.90
2009,07,26,10,14,21.00
2009,07,26,10,15,21.00
2009,07,26,10,16,21.10
2009,07,26,10,17,21.10
2009,07,26,10,18,21.10
2009,07,26,10,19,21.10
2009,07,26,10,20,21.10
2009,07,26,10,21,21.10
2009,07,26,10,22,21.10
2009,07,26,10,23,21.20
2009,07,26,10,24,21.30
2009,07,26,10,25,21.30
2009,07,26,10,26,21.40
2009,07,26,10,27,21.30
2009,07,26,10,28,21.30
2009,07,26,10,29,21.20
2009,07,26,10,30,21.10
2009,07,26,10,31,21.00
2009,07,26,10,32,21.00
2009,07,26,10,33,21.00
2009,07,26,10,34,21.00
2009,07,26,10,35,21.00
2009,07,26,10,36,21.00
2009,07,26,10,37,21.00
2009,07,26,10,38,21.00
2009,07,26,10,39,21.20
2009,07,26,10,40,21.30
2009,07,26,10,41,21.30
2009,07,26,10,42,21.30
2009,07,26,10,43,21.30
2009,07,26,10,44,21.30
2009,07,26,10,45,21.30
2009,07,26,10,46,21.30
2009,07,26,10,47,21.30
2009,07,26,10,48,21.30
2009,07,26,10,49,21.30
2009,07,26,10,50,21.20
2009,07,26,10,51,21.10
2009,07,26,10,52,21.10
2009,07,26,10,53,21.00
2009,07,26,10,54,21.00
2009,07,26,10,55,21.00
2009,07,26,10,56,21.00
2009,07,26,10,57,21.00
2009,07,26,10,58,21.20
2009,07,26,10,59,21.30
2009,07,26,11,00,21.30
2009,07,26,11,01,21.30
2009,07,26,11,02,21.30
2009,07,26,11,03,21.40
2009,07,26,11,04,21.50
2009,07,26,11,05,21.60
2009,07,26,11,06,21.60
2009,07,26,11,07,21.70
2009,07,26,11,08,21.90
2009,07,26,11,09,22.10
2009,07,26,11,10,22.20
2009,07,26,11,11,22.20
2009,07,26,11,12,22.20
2009,07,26,11,13,22.10
2009,07,26,11,14,22.10
2009,07,26,11,15,22.20
2009,07,26,11,16,22.20
2009,07,26,11,17,22.20
2009,07,26,11,18,22.10
2009,07,26,11,19,22.00
2009,07,26,11,20,21.90
2009,07,26,11,21,21.70
2009,07,26,11,22,21.70
2009,07,26,11,23,21.70
2009,07,26,11,24,21.60
2009,07,26,11,25,21.50
2009,07,26,11,26,21.50
2009,07,26,11,27,21.60
2009,07,26,11,28,21.50
2009,07,26,11,29,21.60
2009,07,26,11,30,21.60
2009,07,26,11,31,21.70
2009,07,26,11,32,21.70
2009,07,26,11,33,21.80
2009,07,26,11,34,21.90
2009,07,26,11,35,21.90
2009,07,26,11,36,22.00
2009,07,26,11,37,22.00
2009,07,26,11,38,22.20
2009,07,26,11,39,22.30
2009,07,26,11,40,22.30
2009,07,26,11,41,22.40
2009,07,26,11,42,22.40
2009,07,26,11,43,22.50
2009,07,26,11,44,22.60
2009,07,26,11,45,22.70
2009,07,26,11,46,22.60
2009,07,26,11,47,22.40
2009,07,26,11,48,22.30
2009,07,26,11,49,22.30
2009,07,26,11,50,22.40
2009,07,26,11,51,22.40
2009,07,26,11,52,22.40
2009,07,26,11,53,22.50
2009,07,26,11,54,22.50
2009,07,26,11,55,22.60
2009,07,26,11,56,22.70
2009,07,26,11,57,22.80
2009,07,26,11,58,22.70
2009,07,26,11,59,22.60
2009,07,26,12,00,22.50
2009,07,26,12,01,22.40
2009,07,26,12,02,22.40
2009,07,26,12,03,22.40
2009,07,26,12,04,22.50
2009,07,26,12,05,22.50
2009,07,26,12,06,22.50
2009,07,26,12,07,22.60
2009,07,26,12,08,22.60
2009,07,26,12,09,22.60
2009,07,26,12,10,22.70
2009,07,26,12,11,22.90
2009,07,26,12,12,23.00
2009,07,26,12,13,23.20
2009,07,26,12,14,23.30
2009,07,26,12,15,23.30
2009,07,26,12,16,23.40
2009,07,26,12,17,23.40
2009,07,26,12,18,23.60
2009,07,26,12,19,23.50
2009,07,26,12,20,23.30
2009,07,26,12,21,23.10
2009,07,26,12,22,23.00
2009,07,26,12,23,22.90
2009,07,26,12,24,22.80
2009,07,26,12,25,22.70
2009,07,26,12,26,22.70
2009,07,26,12,27,22.70
2009,07,26,12,28,22.70
2009,07,26,12,29,22.80
2009,07,26,12,30,22.90
2009,07,26,12,31,22.90
2009,07,26,12,32,22.90
2009,07,26,12,33,23.00
2009,07,26,12,34,23.10
2009,07,26,12,35,23.30
2009,07,26,12,36,23.30
2009,07,26,12,37,23.20
2009,07,26,12,38,23.00
2009,07,26,12,39,22.80
2009,07,26,12,40,22.80
2009,07,26,12,41,22.60
2009,07,26,12,42,22.50
2009,07,26,12,43,22.40
2009,07,26,12,44,22.40
2009,07,26,12,45,22.40
2009,07,26,12,46,22.50
2009,07,26,12,47,22.60
2009,07,26,12,48,22.80
2009,07,26,12,49,23.00
2009,07,26,12,50,23.10
2009,07,26,12,51,23.30
2009,07,26,12,52,23.40
2009,07,26,12,53,23.60
2009,07,26,12,54,23.60
2009,07,26,12,55,23.50
2009,07,26,12,56,23.30
2009,07,26,12,57,23.20
2009,07,26,12,58,23.10
2009,07,26,12,59,23.10
2009,07,26,13,00,23.10
2009,07,26,13,01,23.10
2009,07,26,13,02,23.20
2009,07,26,13,03,23.30
2009,07,26,13,04,23.30
2009,07,26,13,05,23.20
2009,07,26,13,06,23.00
2009,07,26,13,07,22.80
2009,07,26,13,08,22.70
2009,07,26,13,09,22.60
2009,07,26,13,10,22.60
2009,07,26,13,11,22.60
2009,07,26,13,12,22.60
2009,07,26,13,13,22.60
2009,07,26,13,14,22.60
2009,07,26,13,15,22.60
2009,07,26,13,16,22.60
2009,07,26,13,17,22.60
2009,07,26,13,18,22.80
2009,07,26,13,19,22.90
2009,07,26,13,20,23.10
2009,07,26,13,21,23.20
2009,07,26,13,22,23.30
2009,07,26,13,23,23.40
2009,07,26,13,24,23.40
2009,07,26,13,25,23.30
2009,07,26,13,26,23.40
2009,07,26,13,27,23.40
2009,07,26,13,28,23.50
2009,07,26,13,29,23.40
2009,07,26,13,30,23.50
2009,07,26,13,31,23.50
2009,07,26,13,32,23.40
2009,07,26,13,33,23.40
2009,07,26,13,34,23.30
2009,07,26,13,35,23.30
2009,07,26,13,36,23.40
2009,07,26,13,37,23.50
2009,07,26,13,38,23.60
2009,07,26,13,39,23.60
2009,07,26,13,40,23.70
2009,07,26,13,41,23.60
2009,07,26,13,42,23.60
2009,07,26,13,43,23.70
2009,07,26,13,44,23.70
2009,07,26,13,45,23.60
2009,07,26,13,46,23.50
2009,07,26,13,47,23.40
2009,07,26,13,48,23.60
2009,07,26,13,49,23.60
2009,07,26,13,50,23.60
2009,07,26,13,51,23.50
2009,07,26,13,52,23.40
2009,07,26,13,53,23.30
2009,07,26,13,54,23.20
2009,07,26,13,55,23.20
2009,07,26,13,56,23.20
2009,07,26,13,57,23.20
2009,07,26,13,58,23.30
2009,07,26,13,59,23.40
2009,07,26,14,00,23.50
2009,07,26,14,01,23.50
2009,07,26,14,02,23.40
2009,07,26,14,03,23.40
2009,07,26,14,04,23.30
2009,07,26,14,05,23.20
2009,07,26,14,06,23.10
2009,07,26,14,07,22.90
2009,07,26,14,08,22.80
2009,07,26,14,09,22.90
2009,07,26,14,10,22.90
2009,07,26,14,11,23.00
2009,07,26,14,12,23.00
2009,07,26,14,13,23.00
2009,07,26,14,14,23.10
2009,07,26,14,15,23.20
2009,07,26,14,16,23.20
2009,07,26,14,17,23.00
2009,07,26,14,18,22.90
2009,07,26,14,19,22.90
2009,07,26,14,20,22.90
2009,07,26,14,21,23.00
2009,07,26,14,22,23.10
2009,07,26,14,23,23.10
2009,07,26,14,24,23.10
2009,07,26,14,25,23.10
2009,07,26,14,26,23.30
2009,07,26,14,27,23.40
2009,07,26,14,28,23.50
2009,07,26,14,29,23.60
2009,07,26,14,30,23.60
2009,07,26,14,31,23.60
2009,07,26,14,32,23.60
2009,07,26,14,33,23.60
2009,07,26,14,34,23.50
2009,07,26,14,35,23.40
2009,07,26,14,36,23.40
2009,07,26,14,37,23.20
2009,07,26,14,38,23.00
2009,07,26,14,39,22.90
2009,07,26,14,40,22.90
2009,07,26,14,41,22.90
2009,07,26,14,42,23.10
2009,07,26,14,43,23.00
2009,07,26,14,44,23.10
2009,07,26,14,45,23.20
2009,07,26,14,46,23.20
2009,07,26,14,47,23.30
2009,07,26,14,48,23.30
2009,07,26,14,49,23.20
2009,07,26,14,50,23.30
2009,07,26,14,51,23.30
2009,07,26,14,52,23.30
2009,07,26,14,53,23.30
2009,07,26,14,54,23.30
2009,07,26,14,55,23.40
2009,07,26,14,56,23.50
2009,07,26,14,57,23.70
2009,07,26,14,58,23.80
2009,07,26,14,59,23.80
2009,07,26,15,00,23.80
2009,07,26,15,01,23.70
2009,07,26,15,02,23.60
2009,07,26,15,03,23.50
2009,07,26,15,04,23.40
2009,07,26,15,05,23.30
2009,07,26,15,06,23.50
2009,07,26,15,07,23.60
2009,07,26,15,08,23.70
2009,07,26,15,09,23.70
2009,07,26,15,10,23.70
2009,07,26,15,11,23.70
2009,07,26,15,12,23.80
2009,07,26,15,13,23.80
2009,07,26,15,14,23.80
2009,07,26,15,15,23.70
2009,07,26,15,16,23.60
2009,07,26,15,17,23.50
2009,07,26,15,18,23.30
2009,07,26,15,19,23.30
2009,07,26,15,20,23.20
2009,07,26,15,21,23.20
2009,07,26,15,22,23.20
2009,07,26,15,23,23.20
2009,07,26,15,24,23.20
2009,07,26,15,25,23.30
2009,07,26,15,26,23.40
2009,07,26,15,27,23.50
2009,07,26,15,28,23.60
2009,07,26,15,29,23.70
2009,07,26,15,30,23.70
2009,07,26,15,31,23.70
2009,07,26,15,32,23.70
2009,07,26,15,33,23.70
2009,07,26,15,34,23.70
2009,07,26,15,35,23.70
2009,07,26,15,36,23.60
2009,07,26,15,37,23.60
2009,07,26,15,38,23.60
2009,07,26,15,39,23.70
2009,07,26,15,40,23.70
2009,07,26,15,41,23.80
2009,07,26,15,42,23.80
2009,07,26,15,43,23.90
2009,07,26,15,44,24.00
2009,07,26,15,45,24.10
2009,07,26,15,46,24.20
2009,07,26,15,47,24.20
2009,07,26,15,48,24.20
2009,07,26,15,49,24.10
2009,07,26,15,50,24.10
2009,07,26,15,51,24.10
2009,07,26,15,52,24.10
2009,07,26,15,53,24.10
2009,07,26,15,54,24.10
2009,07,26,15,55,24.00
2009,07,26,15,56,24.00
2009,07,26,15,57,24.10
2009,07,26,15,58,24.10
2009,07,26,15,59,24.20
2009,07,26,16,00,24.30
2009,07,26,16,01,24.40
2009,07,26,16,02,24.50
2009,07,26,16,03,24.40
2009,07,26,16,04,24.20
2009,07,26,16,05,24.00
2009,07,26,16,06,23.90
2009,07,26,16,07,23.90
2009,07,26,16,08,23.90
2009,07,26,16,09,23.90
2009,07,26,16,10,24.00
2009,07,26,16,11,24.10
2009,07,26,16,12,24.20
2009,07,26,16,13,24.30
2009,07,26,16,14,24.30
2009,07,26,16,15,24.30
2009,07,26,16,16,24.30
2009,07,26,16,17,24.40
2009,07,26,16,18,24.40
2009,07,26,16,19,24.50
2009,07,26,16,20,24.60
2009,07,26,16,21,24.60
2009,07,26,16,22,24.60
2009,07,26,16,23,24.70
2009,07,26,16,24,24.80
2009,07,26,16,25,24.90
2009,07,26,16,26,24.90
2009,07,26,16,27,24.90
2009,07,26,16,28,24.90
2009,07,26,16,29,24.90
2009,07,26,16,30,24.90
2009,07,26,16,31,24.90
2009,07,26,16,32,24.90
2009,07,26,16,33,25.00
2009,07,26,16,34,25.00
2009,07,26,16,35,25.10
2009,07,26,16,36,25.20
2009,07,26,16,37,25.20
2009,07,26,16,38,25.20
2009,07,26,16,39,25.20
2009,07,26,16,40,25.10
2009,07,26,16,41,25.10
2009,07,26,16,42,25.10
2009,07,26,16,43,25.00
2009,07,26,16,44,25.10
2009,07,26,16,45,25.10
2009,07,26,16,46,25.10
2009,07,26,16,47,25.10
2009,07,26,16,48,25.10
2009,07,26,16,49,25.20
2009,07,26,16,50,25.20
2009,07,26,16,51,25.20
2009,07,26,16,52,25.20
2009,07,26,16,53,25.20
2009,07,26,16,54,25.20
2009,07,26,16,55,25.10
2009,07,26,16,56,25.20
2009,07,26,16,57,25.20
2009,07,26,16,58,25.20
2009,07,26,16,59,25.20
2009,07,26,17,00,25.10
2009,07,26,17,01,25.10
2009,07,26,17,02,25.00
2009,07,26,17,03,25.00
2009,07,26,17,04,25.00
2009,07,26,17,05,25.00
2009,07,26,17,06,25.00
2009,07,26,17,07,25.00
2009,07,26,17,08,25.00
2009,07,26,17,09,25.00
2009,07,26,17,10,25.00
2009,07,26,17,11,25.00
2009,07,26,17,12,25.10
2009,07,26,17,13,25.10
2009,07,26,17,14,25.10
2009,07,26,17,15,25.10
2009,07,26,17,16,25.20
2009,07,26,17,17,25.30
2009,07,26,17,18,25.30
2009,07,26,17,19,25.30